Погода в Новом Валовае

Россия / Пензенская область     53°12′17″N   43°14′25″E
темп.,
°C
ветер,
м/с
пор.,
м/с
влажн.,
%
обл.,
%
осадки,
мм/ч
давл.,
гПа
погр.,
м
13 мая, чт
чт1300:00+10ю239583 0.0 1021139
03:00+8в22963 0.0 102127
06:00+10всв3593100 0.0 1020139
09:00+16в458138 0.0 1018580
12:00+15вюв3487100 0.4 1018353
15:00+19ю347569 0.9 1017771
18:00+19юз23790 0.2 1016269
21:00+15ю11860 0.2 101711
14 мая, пт
пт1400:00+13ююв2290100 0.0 101815
03:00+13юв2291100 0.0 101919
06:00+14юв3591100 0.0 1019118
09:00+20юв357218 0.0 1019470
12:00+23юв5659100 0.0 10181194
15:00+25юв5658100 0.0 10171370
18:00+23юв5107298 0.0 1016395
21:00+18ююв4118516 0.0 1016184
15 мая, сб
сб1500:00+17юв41184100 0.0 1015196
03:00+16ююв615675 0.0 1015308
06:00+15ююв61569100 0.0 1015322
09:00+19ююв7165994 0.0 1015611
12:00+24ю8155134 0.0 10151129
15:00+25ю6115254 0.0 10151414
18:00+22ю5126261 0.0 1014404
21:00+17ююв467863 0.0 101492
16 мая, вс
вс1600:00+16ю2283100 0.0 101519
03:00+15ююв2283100 0.0 101511
06:00+16ю1181100 0.0 101651
09:00+20ююв336646 0.0 1015340
12:00+24ю57515 0.0 10161030
15:00+25ю58475 0.0 10151151
18:00+23ю36655 0.0 1015172
21:00+18юв226874 0.0 101511
17 мая, пн
пн1700:00+17вюв3376100 0.0 101630
03:00+16вюв347484 0.0 101649
06:00+17вюв347629 0.0 101686
09:00+22вюв465740 0.0 1016317
12:00+27ююв684621 0.0 10161135
15:00+28юв594222 0.0 10152783
18:00+24юв496197 0.0 1015222
21:00+19вюв476085 0.0 101581